Retour au catalogue

TITAN 3C TRANSTAGE DEB

ActifHEO
NORAD 35503·DEBRIS·🇺🇸 United States

Lancé Dec 21, 1965 depuis Cape Canaveral Space Force Station

Loading…

Prochains Passages (prochaines 24 heures)

TLE

FraisSource: Space-Track

Époque: Sep 5, 2026, 08:19 UTC

1 35503U 65108DJ  26248.34718711 -.00000118  00000-0 -46175-2 0  9997
2 35503  26.4127 267.1733 6791139 159.5595 353.5645  2.60397835209313

Suivez TITAN 3C TRANSTAGE DEB en temps réel avec AllMySat

Download on the App Store